Weather History for Atlantic City, NJ

Change the Weather History Date:

Sunday, April 7, 2013

  Actual Average Record
Temperature  
Mean Temperature 43 °F 49 °F  
Max Temperature 56 °F 59 °F 91 °F (2010)
Min Temperature 29 °F 39 °F 20 °F (1982)
Degree Days  
Heating Degree Days 22 16  
Month to date heating degree days 159 119  
Since 1 July heating degree days 4381 4416  
Cooling Degree Days 0 0  
Month to date cooling degree days 0 0  
Year to date cooling degree days 0 0  
Moisture  
Dew Point 36 °F    
Average Humidity 73    
Maximum Humidity 92    
Minimum Humidity 54    
Precipitation  
Precipitation 0.00 in 0.13 in 1.34 in (1962)
Month to date precipitation 0.68 0.95  
Year to date precipitation 12.80 11.25  
Snow  
Snow 0.00 in 0.00 in 3.90 in (1990)
Month to date snowfall 0.0 0.1  
Since 1 July snowfall 14.5 16.3  
Snow Depth 0.00 in    
Sea Level Pressure  
Sea Level Pressure 30.20 in    
Wind  
Wind Speed 12 mph (South)    
Max Wind Speed 25 mph    
Max Gust Speed 37 mph    
Visibility 10 miles    
Events      
T = Trace of Precipitation, MM = Missing Value Source: NWS Daily Summary

Daily Weather History Graph

Daily Weather History Graph

Search for Another Location

Airport:

Trip Planner

Search our weather history database for the weather conditions in past years. The results will help you decide how hot, cold, wet, or windy it might be!

Date:

Astronomy

Apr. 07, 2013 Rise Set
Actual Time 6:32 AM EDT 7:28 PM EDT
Civil Twilight 6:05 AM EDT 7:55 PM EDT
Nautical Twilight 5:33 AM EDT 8:28 PM EDT
Astronomical Twilight 4:59 AM EDT 9:02 PM EDT
Moon 4:48 AM EDT (4/7) 4:58 PM EDT (4/7)
Length of Visible Light 13h 50m
Length of Day
12h 55m
Waning Crescent, 8% of the Moon is Illuminated
Apr 7
Waning Crescent
Apr 10
New
Apr 18
First Quarter
Apr 25
Full
May 2
Last Quarter

Hourly Weather History & Observations

Time (EDT) Temp. Windchill Dew Point Humidity Pressure Visibility Wind Dir Wind Speed Gust Speed Precip Events Conditions
12:54 AM 39.0 °F 34.8 °F 28.9 °F 67% 30.34 in 10.0 mi SSE 5.8 mph - N/A   Clear
1:54 AM 37.9 °F 34.4 °F 28.9 °F 70% 30.34 in 10.0 mi SSW 4.6 mph - N/A   Clear
2:54 AM 39.0 °F 35.7 °F 30.0 °F 70% 30.32 in 10.0 mi South 4.6 mph - N/A   Clear
3:54 AM 37.0 °F - 28.9 °F 73% 30.30 in 10.0 mi Calm Calm - N/A   Clear
4:54 AM 30.0 °F - 25.0 °F 82% 30.30 in 10.0 mi Calm Calm - N/A   Clear
5:54 AM 30.0 °F 26.5 °F 26.1 °F 85% 30.30 in 10.0 mi SSE 3.5 mph - N/A   Clear
6:54 AM 36.0 °F - 33.1 °F 89% 30.30 in 10.0 mi Calm Calm - N/A   Clear
7:54 AM 42.1 °F 38.4 °F 36.0 °F 79% 30.30 in 10.0 mi SSE 5.8 mph - N/A   Clear
8:54 AM 46.0 °F 40.2 °F 32.0 °F 58% 30.30 in 10.0 mi South 12.7 mph 20.7 mph N/A   Clear
9:54 AM 48.9 °F - 34.0 °F 56% 30.29 in 10.0 mi South 18.4 mph 25.3 mph N/A   Clear
10:54 AM 51.1 °F - 35.1 °F 54% 30.28 in 10.0 mi South 17.3 mph 24.2 mph N/A   Clear
11:54 AM 52.0 °F - 36.0 °F 54% 30.25 in 10.0 mi South 18.4 mph - N/A   Clear
12:54 PM 53.1 °F - 37.0 °F 55% 30.21 in 10.0 mi South 17.3 mph 28.8 mph N/A   Clear
1:54 PM 54.0 °F - 39.0 °F 57% 30.18 in 10.0 mi South 17.3 mph 28.8 mph N/A   Clear
2:54 PM 54.0 °F - 39.9 °F 59% 30.14 in 10.0 mi South 23.0 mph 31.1 mph N/A   Clear
3:54 PM 53.1 °F - 41.0 °F 64% 30.12 in 10.0 mi South 19.6 mph 28.8 mph N/A   Clear
4:54 PM 53.1 °F - 42.1 °F 66% 30.09 in 10.0 mi South 16.1 mph 27.6 mph N/A   Clear
5:54 PM 54.0 °F - 42.1 °F 64% 30.07 in 10.0 mi SSW 17.3 mph 29.9 mph N/A   Clear
6:54 PM 52.0 °F - 42.1 °F 69% 30.08 in 10.0 mi South 16.1 mph 23.0 mph N/A   Clear
7:54 PM 51.1 °F - 42.1 °F 71% 30.06 in 10.0 mi South 17.3 mph 27.6 mph N/A   Clear
8:54 PM 51.1 °F - 42.1 °F 71% 30.08 in 10.0 mi South 11.5 mph - N/A   Partly Cloudy
9:54 PM 51.1 °F - 42.1 °F 71% 30.08 in 10.0 mi South 10.4 mph - N/A   Clear
10:54 PM 51.1 °F - 43.0 °F 74% 30.06 in 10.0 mi South 10.4 mph - N/A   Clear
11:54 PM 51.1 °F - 43.0 °F 74% 30.06 in 10.0 mi South 9.2 mph - N/A   Clear